FW6684 Weather Reports


Display with metric or nautical units.
time (UTC)temp
F
wind
direction
speed
MPH
gust
MPH
rain 1hr
in
rain 24hr
in
rain mn
in
humidity
%
barometer
mb
20260906025043 55 0 0.0 1.0 0.00 0.00 0.00 88 1025.5
20260906024559 55 0 0.0 1.0 0.00 0.00 0.00 88 1025.6
20260906024046 55 0 0.0 1.0 0.00 0.00 0.00 88 1025.7
20260906023543 55 0 0.0 1.0 0.00 0.00 0.00 88 1025.9
20260906023103 55 0 0.0 1.0 0.00 0.00 0.00 88 1026.0
20260906022543 55 0 0.0 2.0 0.00 0.00 0.00 88 1026.0
20260906022043 55 0 0.0 2.0 0.00 0.00 0.00 88 1026.0
20260906021604 55 0 0.0 2.0 0.00 0.00 0.00 88 1026.1
20260906021043 55 0 0.0 1.0 0.00 0.00 0.00 88 1026.4
20260906020544 55 0 0.0 1.0 0.00 0.00 0.00 88 1026.4
20260906020101 55 0 0.0 2.0 0.00 0.00 0.00 88 1026.4
20260906015543 55 278 0.0 2.0 0.00 0.00 0.00 88 1026.3
20260906015043 55 277 0.0 2.0 0.00 0.00 0.00 88 1026.5
20260906014607 55 0 0.0 2.0 0.00 0.00 0.00 88 1026.6
20260906014043 55 0 1.0 2.0 0.00 0.00 0.00 88 1026.5
20260906013543 55 0 0.0 0.0 0.00 0.00 0.00 88 1026.6
20260906013102 55 0 0.0 0.0 0.00 0.00 0.00 87 1026.6
20260906012544 55 0 0.0 1.0 0.00 0.00 0.00 87 1026.6
20260906012044 55 0 0.0 2.0 0.00 0.00 0.00 87 1026.7
20260906011606 56 0 1.0 2.0 0.00 0.00 0.00 87 1026.7
20260906011044 56 0 0.0 1.0 0.00 0.00 0.00 87 1026.7
20260906010543 56 0 0.0 2.0 0.00 0.00 0.00 87 1026.7
20260906005543 55 0 0.0 2.0 0.00 0.00 0.00 87 1026.7
20260906005045 55 0 0.0 2.0 0.00 0.00 0.00 86 1026.7
20260906004604 55 0 1.0 2.0 0.00 0.00 0.00 86 1026.7
20260906004043 55 275 0.0 2.0 0.00 0.00 0.00 86 1026.7
20260906003544 55 0 0.0 2.0 0.00 0.00 0.00 86 1026.8
20260906003105 56 0 0.0 2.0 0.00 0.00 0.00 86 1026.9
20260906002543 56 275 0.0 2.0 0.00 0.00 0.00 86 1026.8
20260906002044 56 0 0.0 2.0 0.00 0.00 0.00 86 1027.0
20260906001602 56 0 0.0 2.0 0.00 0.00 0.00 87 1027.1
20260906001045 56 274 0.0 2.0 0.00 0.00 0.00 87 1027.1
20260906000543 56 0 0.0 1.0 0.00 0.00 0.00 86 1027.2
20260906000111 56 0 0.0 1.0 0.00 0.00 0.00 86 1027.3
20260905235543 56 0 0.0 1.0 0.00 0.00 0.00 86 1027.3
20260905235045 56 0 0.0 2.0 0.00 0.00 0.00 86 1027.2
20260905234609 56 273 0.0 3.0 0.00 0.00 0.00 86 1027.2
20260905234043 56 273 1.0 3.0 0.00 0.00 0.00 86 1027.2
20260905233544 56 273 0.0 1.0 0.00 0.00 0.00 86 1027.2
20260905233117 56 0 0.0 0.0 0.00 0.00 0.00 85 1027.2
20260905232543 56 0 0.0 1.0 0.00 0.00 0.00 85 1027.2
20260905232043 56 0 0.0 2.0 0.00 0.00 0.00 85 1027.2
20260905231601 56 0 0.0 2.0 0.00 0.00 0.00 85 1027.1
20260905231044 56 0 0.0 2.0 0.00 0.00 0.00 85 1027.1
20260905230543 56 272 0.0 2.0 0.00 0.00 0.00 85 1027.1
20260905225542 57 0 0.0 1.0 0.00 0.00 0.00 85 1027.1
20260905225043 57 0 0.0 1.0 0.00 0.00 0.00 84 1027.1
20260905224602 57 0 0.0 2.0 0.00 0.00 0.00 85 1027.1
20260905224044 57 0 0.0 2.0 0.00 0.00 0.00 84 1027.1
20260905223543 57 0 0.0 1.0 0.00 0.00 0.00 84 1027.1
20260905223102 58 0 0.0 1.0 0.00 0.00 0.00 84 1027.1
20260905222544 58 0 0.0 2.0 0.00 0.00 0.00 84 1027.1
20260905222043 58 0 0.0 2.0 0.00 0.00 0.00 83 1027.1
20260905221605 58 0 0.0 0.0 0.00 0.00 0.00 82 1027.0
20260905221043 58 0 0.0 0.0 0.00 0.00 0.00 81 1027.1
20260905220543 58 0 0.0 0.0 0.00 0.00 0.00 81 1026.8
20260905215544 58 0 0.0 1.0 0.00 0.00 0.00 80 1026.9
20260905215043 58 0 0.0 2.0 0.00 0.00 0.00 79 1026.9
20260905214601 58 0 0.0 2.0 0.00 0.00 0.00 79 1026.9
20260905214043 58 267 0.0 0.0 0.00 0.00 0.00 79 1027.0
20260905213543 58 0 0.0 0.0 0.00 0.00 0.00 79 1026.9
20260905213113 58 0 0.0 0.0 0.00 0.00 0.00 79 1026.9
20260905212544 59 0 0.0 1.0 0.00 0.00 0.00 80 1026.9
20260905212042 59 0 0.0 1.0 0.00 0.00 0.00 79 1026.8
20260905211610 59 0 0.0 0.0 0.00 0.00 0.00 79 1026.8
20260905211045 59 0 0.0 1.0 0.00 0.00 0.00 79 1026.7
20260905210544 59 0 0.0 1.0 0.00 0.00 0.00 79 1026.6
20260905210111 59 267 0.0 2.0 0.00 0.00 0.00 79 1026.6
20260905205543 59 0 0.0 2.0 0.00 0.00 0.00 78 1026.4
20260905205045 59 0 0.0 1.0 0.00 0.00 0.00 77 1026.4
20260905204600 60 0 0.0 2.0 0.00 0.00 0.00 77 1026.5
20260905204043 60 0 0.0 2.0 0.00 0.00 0.00 77 1026.4
20260905203543 61 267 0.0 2.0 0.00 0.00 0.00 77 1026.4
20260905203102 61 0 0.0 2.0 0.00 0.00 0.00 78 1026.4
20260905202545 61 0 0.0 2.0 0.00 0.00 0.00 76 1026.5
20260905202042 61 0 0.0 1.0 0.00 0.00 0.00 74 1026.4
20260905201600 61 0 0.0 1.0 0.00 0.00 0.00 74 1026.4
20260905201042 61 0 0.0 0.0 0.00 0.00 0.00 71 1026.4
20260905200545 62 0 0.0 1.0 0.00 0.00 0.00 70 1026.4
20260905200105 62 0 0.0 1.0 0.00 0.00 0.00 69 1026.4
20260905195543 63 0 0.0 1.0 0.00 0.00 0.00 68 1026.5
20260905195043 63 0 0.0 0.0 0.00 0.00 0.00 67 1026.5
20260905194601 63 0 0.0 1.0 0.00 0.00 0.00 66 1026.6
20260905194043 64 0 0.0 1.0 0.00 0.00 0.00 65 1026.5
20260905193543 65 0 0.0 2.0 0.00 0.00 0.00 66 1026.5
20260905193104 65 0 0.0 2.0 0.00 0.00 0.00 66 1026.4
20260905192543 66 0 0.0 0.0 0.00 0.00 0.00 63 1026.2
20260905192042 66 0 0.0 1.0 0.00 0.00 0.00 59 1026.2
20260905191558 67 0 0.0 1.0 0.00 0.00 0.00 59 1026.3
20260905191042 67 265 0.0 2.0 0.00 0.00 0.00 56 1026.2
20260905190546 67 0 0.0 2.0 0.00 0.00 0.00 56 1026.2
20260905185542 67 265 0.0 3.0 0.00 0.00 0.00 55 1026.1
20260905185043 68 266 1.0 4.0 0.00 0.00 0.00 55 1026.1
20260905184611 68 265 1.0 4.0 0.00 0.00 0.00 54 1025.9
20260905184043 68 265 1.0 4.0 0.00 0.00 0.00 54 1026.0
20260905183543 69 271 1.0 4.0 0.00 0.00 0.00 54 1025.9
20260905183119 69 271 2.0 4.0 0.00 0.00 0.00 53 1025.8
20260905182542 69 273 1.0 4.0 0.00 0.00 0.00 53 1026.0
20260905182042 70 273 1.0 6.0 0.00 0.00 0.00 52 1025.8
20260905181602 70 273 2.0 6.0 0.00 0.00 0.00 51 1025.9
20260905181043 70 254 2.0 4.0 0.00 0.00 0.00 50 1025.9
20260905180542 71 244 1.0 4.0 0.00 0.00 0.00 50 1025.9
20260905180106 71 0 1.0 4.0 0.00 0.00 0.00 50 1026.0
20260905175547 71 241 1.0 4.0 0.00 0.00 0.00 49 1025.9
20260905175043 71 265 2.0 5.0 0.00 0.00 0.00 49 1025.9
20260905174601 71 247 2.0 6.0 0.00 0.00 0.00 49 1025.9
20260905174044 71 249 3.0 7.0 0.00 0.00 0.00 48 1025.9
20260905173543 71 232 4.0 7.0 0.00 0.00 0.00 48 1025.9
20260905173101 72 241 2.0 6.0 0.00 0.00 0.00 48 1025.7
20260905172544 72 273 1.0 7.0 0.00 0.00 0.00 50 1025.8
20260905172042 72 265 3.0 7.0 0.00 0.00 0.00 48 1025.8
20260905171600 72 0 2.0 7.0 0.00 0.00 0.00 50 1025.8
20260905171044 72 216 3.0 7.0 0.00 0.00 0.00 49 1025.7
20260905170543 72 246 3.0 8.0 0.00 0.00 0.00 49 1025.7
20260905170104 72 213 4.0 8.0 0.00 0.00 0.00 49 1025.8
20260905165542 71 263 2.0 8.0 0.00 0.00 0.00 51 1025.8
20260905165043 71 319 3.0 8.0 0.00 0.00 0.00 51 1025.7
20260905164604 72 327 4.0 8.0 0.00 0.00 0.00 49 1025.6
20260905164043 73 320 2.0 5.0 0.00 0.00 0.00 49 1025.8
20260905163545 72 188 1.0 5.0 0.00 0.00 0.00 49 1025.7
20260905163106 72 214 1.0 5.0 0.00 0.00 0.00 51 1025.8
20260905162545 71 300 1.0 4.0 0.00 0.00 0.00 51 1025.7
20260905162044 71 298 2.0 9.0 0.00 0.00 0.00 51 1025.8
20260905161604 71 291 3.0 9.0 0.00 0.00 0.00 52 1025.8
20260905161043 72 238 3.0 8.0 0.00 0.00 0.00 50 1025.9
20260905160543 72 273 2.0 8.0 0.00 0.00 0.00 50 1025.9
20260905155544 72 331 3.0 7.0 0.00 0.00 0.00 49 1025.9
20260905155043 72 343 1.0 6.0 0.00 0.00 0.00 51 1026.0
20260905154557 71 0 1.0 6.0 0.00 0.00 0.00 53 1025.9
20260905154043 71 292 2.0 6.0 0.00 0.00 0.00 52 1025.9
20260905153544 71 293 2.0 9.0 0.00 0.00 0.00 52 1025.9
20260905153111 71 322 2.0 9.0 0.00 0.00 0.00 54 1025.9
20260905152543 70 313 5.0 9.0 0.00 0.00 0.00 52 1025.9
20260905152045 71 313 3.0 8.0 0.00 0.00 0.00 53 1025.9
20260905151611 71 338 4.0 8.0 0.00 0.00 0.00 51 1026.0
20260905151045 71 255 3.0 7.0 0.00 0.00 0.00 51 1026.1
20260905150544 70 298 3.0 8.0 0.00 0.00 0.00 52 1026.0
20260905145545 70 338 3.0 8.0 0.00 0.00 0.00 53 1026.1
20260905145044 70 318 3.0 8.0 0.00 0.00 0.00 54 1026.2
20260905144559 70 333 4.0 11.0 0.00 0.00 0.00 52 1026.2
20260905144045 70 262 5.0 11.0 0.00 0.00 0.00 53 1026.3
20260905143545 70 223 2.0 9.0 0.00 0.00 0.00 52 1026.2
20260905143059 70 196 4.0 10.0 0.00 0.00 0.00 53 1026.1
20260905142544 69 269 3.0 12.0 0.00 0.00 0.00 55 1026.2
20260905142045 69 309 7.0 12.0 0.00 0.00 0.00 54 1026.1
20260905141621 69 349 3.0 9.0 0.00 0.00 0.00 56 1026.0
20260905141047 69 315 3.0 9.0 0.00 0.00 0.00 55 1026.1
20260905140545 69 324 5.0 11.0 0.00 0.00 0.00 54 1026.2
20260905140108 69 277 4.0 11.0 0.00 0.00 0.00 52 1026.1
20260905135544 69 311 5.0 10.0 0.00 0.00 0.00 54 1026.1
20260905135045 69 247 4.0 10.0 0.00 0.00 0.00 53 1026.1
20260905134604 69 287 3.0 8.0 0.00 0.00 0.00 54 1026.0
20260905134045 68 313 3.0 12.0 0.00 0.00 0.00 57 1026.0
20260905133545 69 328 5.0 12.0 0.00 0.00 0.00 56 1026.1
20260905133058 69 0 2.0 10.0 0.00 0.00 0.00 55 1025.9
20260905132545 69 277 5.0 10.0 0.00 0.00 0.00 54 1025.9
20260905132047 68 238 4.0 10.0 0.00 0.00 0.00 56 1026.0
20260905131618 67 263 2.0 9.0 0.00 0.00 0.00 59 1026.0
20260905131044 67 296 3.0 9.0 0.00 0.00 0.00 57 1026.1
20260905130547 67 17 3.0 9.0 0.00 0.00 0.00 57 1026.0
20260905130105 67 328 4.0 11.0 0.00 0.00 0.00 57 1025.9
20260905125545 68 315 5.0 11.0 0.00 0.00 0.00 57 1025.9
20260905125043 68 221 5.0 9.0 0.00 0.00 0.00 57 1026.0
20260905124604 68 298 5.0 9.0 0.00 0.00 0.00 58 1026.0
20260905124042 68 317 5.0 10.0 0.00 0.00 0.00 57 1025.9
20260905123542 68 289 3.0 10.0 0.00 0.00 0.00 56 1025.8
20260905123106 68 285 4.0 12.0 0.00 0.00 0.00 57 1025.8
20260905122543 68 311 5.0 12.0 0.00 0.00 0.00 56 1025.8
20260905122043 68 230 4.0 12.0 0.00 0.00 0.00 57 1025.8
20260905121602 67 227 6.0 12.0 0.00 0.00 0.00 59 1025.9
20260905121042 67 238 5.0 11.0 0.00 0.00 0.00 57 1025.8
20260905120543 67 279 5.0 12.0 0.00 0.00 0.00 58 1025.7
20260905115542 66 277 6.0 11.0 0.00 0.00 0.00 61 1025.7
20260905115043 66 327 4.0 12.0 0.00 0.00 0.00 59 1025.7
20260905114600 66 271 5.0 12.0 0.00 0.00 0.00 60 1025.7
20260905114046 66 257 5.0 12.0 0.00 0.00 0.00 60 1025.8
20260905113543 66 306 6.0 11.0 0.00 0.00 0.00 61 1025.8
20260905113059 66 314 5.0 11.0 0.00 0.00 0.00 61 1025.8
20260905112542 66 247 5.0 11.0 0.00 0.00 0.00 62 1025.8
20260905112043 65 298 4.0 15.0 0.00 0.00 0.00 63 1025.9
20260905111558 65 312 5.0 15.0 0.00 0.00 0.00 63 1025.8
20260905111042 65 331 3.0 11.0 0.00 0.00 0.00 64 1025.9
20260905110542 65 324 3.0 11.0 0.00 0.00 0.00 63 1025.7
20260905110101 64 289 6.0 11.0 0.00 0.00 0.00 63 1025.8
20260905105543 64 304 7.0 10.0 0.00 0.00 0.00 65 1025.8
20260905105042 64 325 7.0 12.0 0.00 0.00 0.00 65 1025.7
20260905104559 64 325 6.0 12.0 0.00 0.00 0.00 67 1025.8
20260905104042 64 299 5.0 11.0 0.00 0.00 0.00 67 1025.8
20260905103547 63 317 7.0 13.0 0.00 0.00 0.00 67 1025.8
20260905103104 63 266 7.0 13.0 0.00 0.00 0.00 67 1025.8
20260905102542 63 322 7.0 14.0 0.00 0.00 0.00 67 1025.7
20260905102042 64 318 8.0 14.0 0.00 0.00 0.00 67 1025.6
20260905101559 64 294 5.0 11.0 0.00 0.00 0.00 69 1025.7
20260905101043 63 294 5.0 12.0 0.00 0.00 0.00 68 1025.6
20260905100545 64 327 5.0 12.0 0.00 0.00 0.00 66 1025.6
20260905100121 64 299 5.0 12.0 0.00 0.00 0.00 68 1025.6
20260905095542 63 219 7.0 13.0 0.00 0.00 0.00 69 1025.6
20260905095042 63 313 5.0 13.0 0.00 0.00 0.00 69 1025.5
20260905094558 63 309 7.0 11.0 0.00 0.00 0.00 70 1025.5
20260905094042 63 343 3.0 10.0 0.00 0.00 0.00 71 1025.3
20260905093544 62 272 4.0 12.0 0.00 0.00 0.00 72 1025.3
20260905093059 62 300 4.0 12.0 0.00 0.00 0.00 73 1025.3
20260905092544 62 313 6.0 12.0 0.00 0.00 0.00 72 1025.3
20260905092043 62 315 4.0 12.0 0.00 0.00 0.00 74 1025.4
20260905091600 62 305 5.0 12.0 0.00 0.00 0.00 73 1025.4
20260905091045 62 254 6.0 10.0 0.00 0.00 0.00 73 1025.2
20260905090544 61 281 5.0 10.0 0.00 0.00 0.00 74 1025.2
20260905090134 61 280 4.0 12.0 0.00 0.00 0.00 75 1025.1
20260905085545 61 242 6.0 12.0 0.00 0.00 0.00 75 1025.1
20260905085049 61 315 6.0 12.0 0.00 0.00 0.00 75 1025.2
20260905084603 61 285 7.0 12.0 0.00 0.00 0.00 76 1025.1
20260905084044 60 314 7.0 12.0 0.00 0.00 0.00 77 1025.1
20260905083544 60 309 6.0 13.0 0.00 0.00 0.00 78 1025.1
20260905083057 60 306 7.0 13.0 0.00 0.00 0.00 78 1024.9
20260905082544 60 294 6.0 11.0 0.00 0.00 0.00 79 1025.1
20260905082044 60 258 3.0 10.0 0.00 0.00 0.00 80 1025.0
20260905081604 59 284 4.0 10.0 0.00 0.00 0.00 80 1025.0
20260905081043 59 250 5.0 11.0 0.00 0.00 0.00 80 1024.9
20260905080546 59 271 5.0 11.0 0.00 0.00 0.00 81 1024.9
20260905080059 59 246 4.0 12.0 0.00 0.00 0.00 82 1024.9
20260905075544 58 259 4.0 12.0 0.00 0.03 0.00 82 1024.9
20260905075044 58 266 5.0 12.0 0.00 0.03 0.00 83 1024.9
20260905074607 58 223 4.0 8.0 0.00 0.03 0.00 84 1024.9
20260905074043 57 262 3.0 7.0 0.00 0.03 0.00 85 1024.7
20260905073547 57 268 3.0 11.0 0.00 0.03 0.00 86 1024.6
20260905073106 56 239 5.0 11.0 0.00 0.03 0.00 87 1024.6
20260905072543 56 244 1.0 11.0 0.00 0.03 0.00 89 1024.8
20260905072046 55 277 6.0 11.0 0.00 0.03 0.00 89 1024.7
20260905071600 55 241 2.0 7.0 0.00 0.03 0.00 91 1024.5
20260905071047 55 263 3.0 8.0 0.00 0.03 0.00 91 1024.5
20260905070544 54 234 4.0 8.0 0.00 0.03 0.00 91 1024.4
20260905065544 54 237 2.0 7.0 0.00 0.03 0.00 92 1024.3
20260905065046 53 240 2.0 6.0 0.00 0.03 0.00 92 1024.3
20260905064602 53 267 1.0 5.0 0.00 0.03 0.00 93 1024.2
20260905064043 53 229 1.0 6.0 0.00 0.03 0.00 93 1024.4
20260905063548 53 257 2.0 6.0 0.00 0.03 0.00 93 1024.3
20260905063105 53 194 1.0 3.0 0.00 0.03 0.00 93 1024.3
20260905062544 52 0 0.0 2.0 0.00 0.03 0.00 93 1024.3
20260905062045 52 0 0.0 3.0 0.00 0.03 0.00 93 1024.1
20260905061604 52 0 0.0 3.0 0.00 0.03 0.00 93 1023.9
20260905061128 52 189 0.0 2.0 0.00 0.03 0.00 93 1023.9
20260905060544 52 0 0.0 3.0 0.00 0.03 0.00 93 1023.8
20260905055547 52 188 1.0 3.0 0.00 0.03 0.00 93 1023.7
20260905055044 52 0 0.0 2.0 0.00 0.03 0.00 93 1023.7
20260905054600 51 0 0.0 1.0 0.00 0.03 0.00 92 1023.7
20260905054044 51 0 0.0 3.0 0.00 0.03 0.00 92 1023.6
20260905053545 52 0 0.0 3.0 0.00 0.03 0.00 92 1023.6
20260905053059 52 188 0.0 3.0 0.00 0.03 0.00 92 1023.5
20260905052545 52 0 0.0 3.0 0.00 0.03 0.00 92 1023.5
20260905052044 52 188 0.0 3.0 0.00 0.03 0.00 92 1023.4
20260905051600 52 0 0.0 2.0 0.00 0.03 0.00 91 1023.2
20260905051044 52 0 0.0 2.0 0.00 0.03 0.00 92 1023.3
20260905050545 52 0 0.0 2.0 0.00 0.03 0.00 91 1023.2
20260905050107 52 0 0.0 2.0 0.00 0.03 0.00 92 1023.1
20260905045544 52 229 0.0 1.0 0.00 0.03 0.00 92 1023.1
20260905045044 52 0 0.0 2.0 0.00 0.03 0.00 91 1023.1
20260905044557 52 0 0.0 4.0 0.00 0.03 0.00 92 1023.1
20260905044044 53 0 0.0 4.0 0.00 0.03 0.00 91 1023.1
20260905043545 53 229 1.0 4.0 0.00 0.03 0.00 92 1023.0
20260905043106 53 0 2.0 4.0 0.00 0.03 0.00 91 1022.9
20260905042543 53 234 1.0 6.0 0.00 0.03 0.00 91 1022.9
20260905042044 53 0 1.0 6.0 0.00 0.03 0.00 91 1022.9
20260905041558 53 231 2.0 4.0 0.00 0.03 0.00 91 1022.8
20260905041044 53 217 2.0 5.0 0.00 0.03 0.00 91 1022.9
20260905040544 53 249 2.0 7.0 0.00 0.03 0.00 91 1022.8
20260905040105 53 246 2.0 9.0 0.00 0.03 0.00 91 1022.8
20260905035544 53 257 3.0 9.0 0.00 0.03 0.00 91 1022.8
20260905035044 53 246 4.0 9.0 0.00 0.03 0.00 91 1022.8
20260905034600 53 251 5.0 11.0 0.00 0.03 0.00 91 1022.7
20260905034043 53 256 5.0 11.0 0.00 0.03 0.00 91 1022.4
20260905033544 53 247 3.0 8.0 0.00 0.03 0.00 91 1022.5
20260905033104 53 229 3.0 9.0 0.00 0.03 0.00 91 1022.6
20260905032545 53 272 3.0 9.0 0.00 0.03 0.00 91 1022.5
20260905032044 53 256 5.0 11.0 0.00 0.03 0.00 91 1022.5
20260905031617 53 261 5.0 11.0 0.00 0.03 0.00 91 1022.3
20260905031043 53 209 3.0 8.0 0.00 0.03 0.00 90 1022.4
20260905030545 54 250 3.0 8.0 0.00 0.03 0.00 90 1022.3
20260905030101 54 269 3.0 8.0 0.00 0.03 0.00 90 1022.2
20260905025544 54 245 3.0 8.0 0.00 0.03 0.00 90 1022.2